Regional Weather Roundup
Issued by NWS

Home | Current Version | Previous Version | Text Only | Print | Product List | Glossary On
Versions: 1 2 3 4 5 6 7 8 9 10 11 12 13 14 15 16 17 18 19 20 21 22 23 24 25 26 27 28 29 30 31 32 33 34 35 36 37 38 39 40 41 42 43 44 45 46 47 48 49 50
425
ASUS44 KLIX 211905
RWRLA
LOUISIANA WEATHER ROUNDUP
NATIONAL WEATHER SERVICE NEW ORLEANS LA
200 PM CDT THU AUG 21 2014

NOTE: "FAIR" INDICATES FEW OR NO CLOUDS BELOW 12,000 FEET WITH NO
      SIGNIFICANT WEATHER AND/OR OBSTRUCTIONS TO VISIBILITY.
      SKY/WX - SKY CONDITION AND SIGNIFICANT WEATHER.
      TMP - AIR TEMPERATURE.    DP   - DEWPOINT TEMPERATURE.
      RH  - RELATIVE HUMIDITY.  PRES - PRESSURE.
      HX  - HEAT INDEX.         WCI  - WIND CHILL INDEX.

*  THESE STATIONS ARE NOT NWS OR FAA STATIONS AND ARE NOT UNDER
   NWS QUALITY CONTROL.

LAZ040-048-061>063-065-066-069-212000-
SOUTHEAST LOUISIANA

CITY           SKY/WX    TMP DP  RH WIND       PRES   REMARKS
N.O. AUDUBON     N/A     99  74  45 MISG        N/A  HX 110
N.O. INTL ARPT PTSUNNY   90  76  63 NE7       30.10F HX 101
N.O. LAKEFRONT MOSUNNY   88  77  69 NE7       30.12F HX 100
N.O. DOWNTOWN* FAIR      91  73  55 E7        30.11F HX 100
SLIDELL        MOSUNNY   93  69  45 CALM      30.10F HX  98
BATON ROUGE    PTSUNNY   93  73  52 N3        30.10S HX 102
BOOTHVILLE     PTSUNNY   86  77  74 SE10      30.13F HX  97
BELLE CHASSE   PTSUNNY   93  72  50 SE6       30.10F HX 101
BOGALUSA*      FAIR      94  69  44 CALM      30.12F HX  99
GALLIANO*      NOT AVBL
NEW ROADS*     MOCLDY    85  76  74 E8        30.10S HX  95
GONZALES*      FAIR      90  77  65 CALM      30.10S HX 102
HAMMOND*       MOSUNNY   95  68  41 SE5       30.12F HX  99
HOUMA*         SHOWER    90  73  58 S9        30.11F HX  98
PORT FOURCHON* PTCLDY    90  75  62 SE9       30.13F HX 100

$$

LAZ041-044-053-054-212000-
SOUTHWEST LOUISIANA

CITY           SKY/WX    TMP DP  RH WIND       PRES   REMARKS
LAKE CHARLES   MOSUNNY   90  78  68 S9        30.09F HX 104
LAFAYETTE      TSTM      82  73  74 VRB6      30.13R
PATTERSON      CLOUDY   N/A N/A N/A MISG        N/A  THUNDER
SALT POINT       N/A     93  80  65 VRB5      30.10F HX 112
NEW IBERIA     TSTM      77  72  84 S8        30.13R
CHENAULT AIRPK MOSUNNY   91  75  59 SW13      30.10F HX 102

$$

LAZ027-028-212000-
CENTRAL LOUISIANA

CITY           SKY/WX    TMP DP  RH WIND       PRES   REMARKS
FORT POLK      LGT RAIN  84  71  65 S10       30.09F
ALEXANDRIA INT PTSUNNY   88  72  58 W10G21    30.07S THUNDER
ALEXANDRIA     MOSUNNY   94  76  55 VRB5      30.08F HX 106

$$

LAZ001-002-212000-
NORTHWEST LOUISIANA

CITY           SKY/WX    TMP DP  RH WIND       PRES   REMARKS
SHREVEPORT     MOSUNNY   94  73  50 SW14      30.07F HX 103
BARKSDALE AFB  SUNNY     94  72  47 S9        30.07F HX 102
DTN SHREVEPORT PTSUNNY   94  73  50 SW12      30.07F HX 103

$$

LAZ014-016-212000-
NORTHEAST LOUISIANA

CITY           SKY/WX    TMP DP  RH WIND       PRES   REMARKS
MONROE         PTSUNNY   92  74  55 W5        30.10F HX 101
TALLULAH       MOSUNNY   94  74  52 NW6       30.10F HX 104

$$




USA.gov is the U.S. government's official web portal to all federal, state and local government web resources and services.